Weather History for Destin, FL

Change the Weather History Date:

Sunday, January 20, 2013

  Actual Average Record
Temperature  
Mean Temperature 58 °F -  
Max Temperature 66 °F 58 °F 71 °F (1999)
Min Temperature 50 °F 43 °F 30 °F (2004)
Degree Days  
Heating Degree Days 7    
Growing Degree Days 8 (Base 50)    
Moisture  
Dew Point 46 °F    
Average Humidity 68    
Maximum Humidity 86    
Minimum Humidity 43    
Precipitation  
Precipitation 0.00 in - - ()
Sea Level Pressure  
Sea Level Pressure 30.19 in    
Wind  
Wind Speed 3 mph (NNW)    
Max Wind Speed 7 mph    
Max Gust Speed -    
Visibility 10 miles    
Events      
Averages and records for this station are not official NWS values.
T = Trace of Precipitation, MM = Missing Value Source: NWS Daily Summary

Daily Weather History Graph

Daily Weather History Graph

Search for Another Location

Airport:

Trip Planner

Search our weather history database for the weather conditions in past years. The results will help you decide how hot, cold, wet, or windy it might be!

Date:

Astronomy

Jan. 20, 2013 Rise Set
Actual Time 6:42 AM CST 5:12 PM CST
Civil Twilight 6:16 AM CST 5:37 PM CST
Nautical Twilight 5:47 AM CST 6:07 PM CST
Astronomical Twilight 5:18 AM CST 6:35 PM CST
Moon 12:11 PM CST 1:16 AM CST
Length of Visible Light 11h 21m
Length of Day
10h 30m
Waxing Gibbous, 66% of the Moon is Illuminated
Jan 20
Waxing Gibbous
Jan 26
Full
Feb 3
Last Quarter
Feb 10
New
Feb 17
First Quarter

Hourly Weather History & Observations

Time (CST) Temp. Dew Point Humidity Pressure Visibility Wind Dir Wind Speed Gust Speed Precip Events Conditions
12:53 AM 54.0 °F 45.0 °F 72% 30.25 in 10.0 mi NNW 5.8 mph - N/A   Overcast
1:53 AM 53.1 °F 46.0 °F 77% 30.24 in 10.0 mi Calm Calm - N/A   Mostly Cloudy
2:53 AM 52.0 °F 46.0 °F 80% 30.23 in 10.0 mi North 3.5 mph - N/A   Mostly Cloudy
3:53 AM 52.0 °F 46.0 °F 80% 30.23 in 10.0 mi Calm Calm - N/A   Mostly Cloudy
4:53 AM 50.0 °F 46.0 °F 86% 30.22 in 10.0 mi Calm Calm - N/A   Clear
5:53 AM 50.0 °F 46.0 °F 86% 30.23 in 10.0 mi Calm Calm - N/A   Clear
6:53 AM 50.0 °F 44.1 °F 80% 30.24 in 10.0 mi North 5.8 mph - N/A   Clear
7:53 AM 54.0 °F 46.0 °F 75% 30.25 in 10.0 mi North 4.6 mph - N/A   Clear
8:53 AM 57.0 °F 45.0 °F 64% 30.26 in 10.0 mi North 5.8 mph - N/A   Clear
9:53 AM 62.1 °F 45.0 °F 53% 30.26 in 10.0 mi North 5.8 mph - N/A   Clear
10:53 AM 64.0 °F 45.0 °F 50% 30.23 in 10.0 mi Variable 5.8 mph - N/A   Clear
11:53 AM 64.9 °F 43.0 °F 45% 30.20 in 10.0 mi North 5.8 mph - N/A   Clear
12:53 PM 66.0 °F 43.0 °F 43% 30.17 in 10.0 mi NE 3.5 mph - N/A   Clear
1:53 PM 64.9 °F 44.1 °F 47% 30.14 in 10.0 mi Variable 3.5 mph - N/A   Clear
2:53 PM 64.0 °F 45.0 °F 50% 30.13 in 10.0 mi WSW 6.9 mph - N/A   Clear
3:53 PM 64.0 °F 45.0 °F 50% 30.13 in 10.0 mi West 5.8 mph - N/A   Clear
4:53 PM 62.1 °F 46.0 °F 56% 30.14 in 10.0 mi WSW 3.5 mph - N/A   Clear
5:53 PM 59.0 °F 46.0 °F 62% 30.13 in 10.0 mi Calm Calm - N/A   Clear
6:53 PM 55.0 °F 46.9 °F 74% 30.14 in 10.0 mi Calm Calm - N/A   Clear
7:53 PM 54.0 °F 46.9 °F 77% 30.14 in 10.0 mi NNW 3.5 mph - N/A   Clear
8:53 PM 53.1 °F 46.0 °F 77% 30.16 in 10.0 mi Calm Calm - N/A   Clear
9:53 PM 52.0 °F 48.0 °F 86% 30.15 in 10.0 mi Calm Calm - N/A   Clear
10:53 PM 52.0 °F 46.9 °F 83% 30.16 in 10.0 mi Calm Calm - N/A   Clear
11:53 PM 54.0 °F 48.0 °F 80% 30.14 in 10.0 mi Calm Calm - N/A   Clear